Regional Weather Roundup
Issued by NWS Wilmington, NC

Home | Current Version | Previous Version | Text Only | Print | Product List | Glossary On
Versions: 1 2 3 4 5 6 7 8 9 10 11 12 13 14 15 16 17 18 19 20 21 22 23 24 25 26 27
000
ASUS42 KILM 271213
RWRILM
RWRILM
REGIONAL HOURLY WEATHER ROUNDUP
NATIONAL WEATHER SERVICE WILMINGTON NC
800 AM EDT SAT AUG 27 2016

NOTE: "FAIR" INDICATES FEW OR NO CLOUDS BELOW 12,000 FEET WITH NO
SIGNIFICANT WEATHER AND/OR OBSTRUCTIONS TO VISIBILITY.

...............WFO WILMINGTON COUNTY WARNING AREA...............

......COASTAL NC AND SC COUNTIES......

CITY           SKY/WX    TMP DP  RH WIND       PRES   REMARKS
WILMINGTON     SUNNY     76  72  87 N5        30.10R
N MYRTLE BEACH SUNNY     76  72  87 N3        30.09R
MYRTLE BEACH   MOSUNNY   75  64  69 N6        30.10S

......INLAND NC AND SC COUNTIES.......

CITY           SKY/WX    TMP DP  RH WIND       PRES   REMARKS
LUMBERTON      SUNNY     75  73  93 CALM      30.10R
ELIZABETHTOWN  SUNNY     75  75 100 CALM      30.11R
WHITEVILLE     MOSUNNY   74  72  93 CALM      30.10S
FLORENCE       SUNNY     76  71  85 CALM      30.11R
DARLINGTON     SUNNY     75  72  90 CALM      30.11
KINGSTREE      FAIR      72  70  94 CALM      30.10R
HARTSVILLE     FAIR      72  70  94 CALM      30.11R
BENNETTSVILLE  FAIR      77  73  88 CALM      30.10S
CONWAY         FAIR      72  70  94 CALM      30.10R
GEORGETOWN     FAIR      73  72  94 CALM      30.09R
MARION         PTSUNNY   72  70  94 CALM      30.11R

....................REST OF NORTH CAROLINA......................

.........EASTERN NC.........

CITY           SKY/WX    TMP DP  RH WIND       PRES   REMARKS
CAPE HATTERAS  MOSUNNY   82  73  74 NW3       30.11R
JACKSONVILLE   SUNNY     74  71  91 CALM      30.11S
MOREHEAD CITY  SUNNY     78  74  87 NE3       30.10S
KENANSVILLE    SUNNY     73  72  94 CALM      30.12R
NEW BERN       SUNNY     76  73  91 CALM      30.12R
ELIZABETH CITY MOSUNNY   78  74  87 CALM      30.11R

.........CENTRAL NC.........

CITY           SKY/WX    TMP DP  RH WIND       PRES   REMARKS
RALEIGH DURHAM MOSUNNY   78  74  87 SW3       30.12R
ROCKY MOUNT    SUNNY     76  75  97 CALM      30.11R
ROANOKE RAPIDS NOT AVBL
FAYETTEVILLE   SUNNY     77  72  84 CALM      30.11R
HOFFMAN        SUNNY     74  71  90 SE2       30.11R

.........WESTERN NC.........

CITY           SKY/WX    TMP DP  RH WIND       PRES   REMARKS
CHARLOTTE      MOSUNNY   78  71  79 CALM      30.13R
GREENSBORO     MOSUNNY   77  72  84 N5        30.14R
HICKORY        NOT AVBL
BOONE          NOT AVBL
ASHEVILLE      NOT AVBL

.....................REST OF SOUTH CAROLINA.....................

.........EASTERN SC.........

CITY           SKY/WX    TMP DP  RH WIND       PRES   REMARKS
CHARLESTON     MOSUNNY   77  72  84 NE6       30.07R
BEAUFORT MCAS  SUNNY     76  73  91 NE6       30.08R
HILTON HEAD    MOSUNNY   81  75  83 NE8       30.07R

.........CENTRAL SC.........

CITY           SKY/WX    TMP DP  RH WIND       PRES   REMARKS
COLUMBIA       SUNNY     78  72  81 CALM      30.10R
ORANGEBURG     MOSUNNY   75  72  90 CALM      30.10R
SUMTER SHAW    SUNNY     75  72  90 NE2       30.09R

.........WESTERN SC.........

CITY           SKY/WX    TMP DP  RH WIND       PRES   REMARKS
GREENVILLE     NOT AVBL
ROCK HILL      SUNNY     73  71  93 CALM      30.13R
ANDERSON       SUNNY     75  72  90 CALM      30.12R
CLEMSON        NOT AVBL
GREENWOOD      CLOUDY    73  70  90 CALM      30.13R


...................COASTAL AND OFFSHORE REPORTS..................

................LOCAL PIERS AND NC RESERVE................


STATION/POSITION TIME  SKY/WX   TEMP    WIND        PRES    VSBY
                                AIR SEA DIR/SP/G
                 (UTC)          (F)     (DEG/KT/KT) (MB)    (MI)
JOHNY MRCER PIER 1100            76 84  340/  5/  8 1018.1R
NC RESRV MASNBRO NOT AVBL
OCEAN CREST PIER NOT AVBL
SPRINGMAID  PIER 1100            75 84  350/  6/  7 1018.2R


................COASTAL AND OFFSHORE BUOYS................


STATION/POSITION TIME  SKY/WX   TEMP    WIND        PRES    VSBY
                                AIR SEA DIR/SP/G
                 (UTC)          (F)     (DEG/KT/KT) (MB)    (MI)
DIMNDSHOAL 41025 1150            82 85  330/  6/ 10 1019.5R
WVE H/P(F/S)=  3/10 SWL H/P/D(F/S/D)=  3/130/10

CAPE LOOKOUT     1200            82      30/  4/  5 1019.0R
ONSLOW BAY 41036 NOT AVBL
ONSLOW BAY 41064 1108            82 84   70/  4/  6 1018.9R
ONSLOW BAY 41159 1125               84                N/A
WVE H/P(F/S)=  4/10 SWL H/P/D(F/S/D)=  2/130/11

5SE WRITBC 41038 NOT AVBL
MASNBO INL 41110 NOT AVBL
WILM HARBR 41108 1126               85                N/A
WVE H/P(F/S)=  3/11 SWL H/P/D(F/S/D)=  2/150/11

27SE WRITB 41037 1108            82 84   70/  4/  8 1019.0R
FRYING PAN 41013 1100            82 84   60/  8/ 12 1018.0R
SUNST NRSH 41024 1108            78 85   30/  6/ 10 1018.6R
CAPRS NRSH 41029 1108            81 84   70/ 12/ 16 1017.6R
EDISTO     41004 1150            83 83   60/ 14/ 16 1017.1R
WVE H/P(F/S)=  5/10 SWL H/P/D(F/S/D)=  3/120/10



..........OFFSHORE BUOYS BEYOND 100 NM OFFSHORE...........
.....IN A TRIANGLE---HAT TO BERMUDA TO BAHAMAS TO HAT.....


STATION/POSITION TIME  SKY/WX   TEMP    WIND        PRES    VSBY
                                AIR SEA DIR/SP/G
                 (UTC)          (F)     (DEG/KT/KT) (MB)    (MI)
150E HAT   41001 NOT AVBL
W BERMUDA  41048 1150            83 84   10/  8/ 10 1016.1S
WVE H/P(F/S)=  3/ 8 SWL H/P/D(F/S/D)=  3/150/ 8

ATLANTIC S 41049 1150            84 85  130/  8/ 10 1016.1R
WVE H/P(F/S)=  3/15 SWL H/P/D(F/S/D)=  3/120/15

E BAHAMAS  41046 1100            83 85  140/  6/  8 1014.3R
NE BAHAMAS 41047 1100            84 87  150/  2/  4 1015.1R
120E CANVRL41010 NOT AVBL

END




USA.gov is the U.S. government's official web portal to all federal, state and local government web resources and services.